PRAETORIAN SDA_605

Last updated on Sun Jun 21 2026 00:03:46 GMT+0000 (Coordinated Universal Time)

1 65568U 25203D 26171.29021462 .00000043 00000+0 27955-4 0 9993 2 65568 81.3018 7.8898 0008250 174.5092 185.6157 13.83434437 39124
UTC large
Height (km)
Speed (km/s)
/
Latitude / Longitude
Inclination (degrees)
Orbital Period (minutes)
Azimuth
Elevation
Range (km)
Doppler Factor

Next 0 passes for location: London (51.5072 / 0.1276)

No passes found over London.
PRAETORIAN SDA_605